Location: Eckley
(40.9930°N, 75.8630°W)
Time: 16:47:20
(UTC-05:00)

Daily predictions for brighter satellites

Satellite Brightness Start Highest point End
(mag) Time Altitude Azimuth Time Altitude Azimuth Time Altitude Azimuth
Cosmos 2181 Rocket 4.2 16:55:39 10° SSE 17:01:48 56° E 17:08:03 10° NNE
USA 234 3.5 16:59:45 10° NE 17:06:16 72° NW 17:12:46 10° WSW
Cosmos 372 Rocket 4.1 17:03:20 10° S 17:08:31 66° ESE 17:13:44 10° NNE
APEX 4.5 17:02:19 10° SSW 17:09:12 88° WNW 17:14:41 10° NNE
Abrixas 4.3 17:07:36 10° WNW 17:09:54 20° N 17:12:13 10° NE
Cosmos 1602 4.3 17:07:22 10° NNW 17:11:17 64° W 17:15:07 10° S
Ariane Rocket 4.4 17:07:08 10° S 17:11:57 44° W 17:16:47 10° NNW
Cosmos 1484 Rocket 4.2 17:09:31 10° ESE 17:12:01 17° ENE 17:14:31 10° NNE
NOSS 3-1 (A) 4.4 17:05:43 10° NW 17:13:23 75° WSW 17:21:43 10° SSE
Cosmos 2082 Rocket 3.9 17:11:38 10° NNE 17:13:28 11° NE 17:15:18 10° ENE
OTV 4 1.9 17:11:08 10° WSW 17:13:56 35° S 17:16:42 10° ESE
Cosmos 1455 Rocket 4.1 17:11:23 10° NNE 17:15:03 25° ENE 17:18:44 10° SE
Cosmos 1295 Rocket 4.4 17:13:23 10° N 17:19:31 69° E 17:25:34 10° SSE
Cosmos 1833 Rocket 4.5 17:18:08 10° NNE 17:19:35 11° NE 17:21:00 10° ENE
Cosmos 1125 Rocket 4.0 17:17:06 10° SSW 17:22:21 64° WNW 17:27:39 10° NNE
Cosmos 2341 Rocket 4.1 17:17:21 10° N 17:23:36 84° W 17:29:49 10° S
Thor Agena Rocket 3.6 17:19:52 10° NNE 17:25:04 72° ESE 17:30:19 10° S
ATLAS 2AS CENTAUR R/B 3.2 17:17:36 10° NNW 17:25:31 52° NE 17:32:55 10° ESE
Okean 1 4.3 17:32:08 10° SSE 17:35:33 27° E 17:38:44 11° NE
Cosmos 1536 3.7 17:31:55 10° NNW 17:35:55 55° W 17:39:52 10° S
Cosmos 1500 4.5 17:33:39 10° NNE 17:36:29 19° ENE 17:39:18 10° ESE
Meteor 1-18 Rocket 4.4 17:33:08 10° SSE 17:38:29 49° E 17:43:59 10° NNE
Cosmos 2263 Rocket 4.2 17:34:45 10° WSW 17:39:15 24° NW 17:43:48 10° N
Cosmos 2251 Rocket 3.7 17:34:08 10° N 17:39:21 50° ENE 17:44:30 10° SE
ISS -3.0 17:43:58 10° WSW 17:47:13 62° NW 17:49:08 23° NE
MSX 3.8 17:46:52 10° SSE 17:52:37 82° ENE 17:58:24 10° NNW
SL-27 R/B 2.4 17:51:32 10° NNW 17:55:14 84° ENE 17:58:52 10° SSE
Nadezhda 3 Rocket 4.5 17:50:35 10° SSE 17:56:09 37° E 18:01:47 10° NNE
Cosmos 1812 2.6 17:52:32 10° S 17:56:22 70° E 18:00:13 10° NNE
Cosmos 1346 Rocket 3.6 17:53:10 10° SSE 17:56:35 29° E 17:57:08 28° ENE
Cosmos 864 Rocket 4.4 17:53:50 10° N 18:00:08 78° E 18:06:27 10° S
CZ-4 R/B 3.3 17:56:46 10° SSW 18:00:36 34° W 18:04:25 10° NNW
COSMO-SKYMED 1 2.5 17:57:35 10° NNE 18:01:55 61° E 18:06:12 10° S
Tiangong 1 3.5 18:01:23 10° SSE 18:02:26 12° SSE 18:02:26 12° SSE
Cosmos 1544 Rocket 3.8 17:58:49 10° NNW 18:03:17 74° W 18:07:43 10° S
Cosmos 1844 Rocket 3.1 17:59:38 10° SW 18:05:09 62° WNW 18:10:45 10° NNE
GEOS 3 Rocket 3.5 18:01:05 10° SE 18:06:09 67° NE 18:11:14 10° NNW
CZ-2C R/B 3.6 18:02:32 10° S 18:07:14 45° W 18:12:07 10° NNW
Cosmos 1238 Rocket 2.8 18:08:33 10° SSW 18:11:28 52° W 18:13:47 15° N
Meteor 1-12 Rocket 4.2 18:06:30 10° N 18:12:18 86° E 18:18:11 10° S
Cosmos 1844 3.9 18:09:51 10° SSW 18:15:23 69° WNW 18:20:25 13° NNE
Cosmos 2297 4.3 18:11:32 10° SSE 18:16:35 35° ESE 18:17:28 33° E
CZ-3A R/B 4.2 18:11:17 10° W 18:16:50 52° NNW 18:35:18 19° ENE
Cosmos 1975 2.7 18:13:02 10° N 18:17:08 79° E 18:21:11 10° S
OPS 8737 4.4 18:14:56 10° SW 18:18:16 68° NW 18:18:56 49° N
BREEZE-M DEB (TANK) 3.6 18:17:12 10° WNW 18:18:35 19° NNW 18:18:35 19° NNW
Cosmos 1536 Rocket 3.8 18:18:09 10° SSW 18:22:35 72° W 18:27:05 10° N
Meteor 1-19 Rocket 4.5 18:22:47 10° SSE 18:28:15 46° E 18:29:45 38° NE
Cosmos 2278 Rocket 2.2 18:27:27 10° SSW 18:33:05 81° WNW 18:36:35 24° NNE
Meteor 2-21 Rocket 4.3 18:30:38 10° N 18:36:50 72° E 18:42:59 10° SSE
Meteor 2-16 Rocket 4.3 18:36:32 10° N 18:42:35 65° E 18:48:36 10° SSE
Meteor 1-13 Rocket 4.1 18:37:23 10° S 18:42:59 76° E 18:46:06 28° NNE
Timation 1 Rocket 4.4 18:40:37 10° S 18:46:14 51° ESE 18:46:14 51° ESE
Okean 1-7 Rocket 3.8 18:42:58 10° S 18:46:44 60° SSE 18:46:44 60° SSE
OTV 4 3.3 18:48:13 10° WSW 18:49:39 14° SSW 18:49:39 14° SSW
Cosmos 921 Rocket 4.4 18:46:35 10° S 18:48:30 26° S 18:48:30 26° S
CZ-3B DEB 3.1 18:46:30 10° WSW 18:50:52 54° NNW 18:55:16 30° NE
Cosmos 1535 Rocket 4.3 18:47:54 10° N 18:54:15 70° E 19:00:26 10° SSE
Timation 2 Rocket 4.0 18:50:11 10° NNW 18:57:02 75° ENE 18:59:43 40° SE
Cosmos 2082 Rocket 2.3 18:53:02 10° NNW 18:57:45 56° NNE 18:57:45 56° NNE
NOSS 3-4 (A) 4.4 18:54:31 10° NNW 18:59:50 36° NNE 18:59:50 36° NNE
NOSS 3-4 (C) 4.5 18:54:38 10° NNW 18:59:55 36° NNE 18:59:55 36° NNE
Cosmos 1833 Rocket 3.4 18:59:06 10° NNW 19:02:46 40° N 19:02:46 40° N
BREEZE-M DEB (TANK) 4.4 19:01:17 10° WNW 19:05:27 28° N 19:05:27 28° N
NOSS 3-3 (A) 4.4 19:01:18 10° SW 19:07:25 59° NW 19:09:41 39° N
NOSS 3-3 (C) 4.4 19:01:24 10° SW 19:07:31 59° NW 19:09:45 40° N
SL-8 R/B 4.2 19:05:05 10° WSW 19:09:02 56° WNW 19:09:02 56° WNW
Cosmos 2239 Rocket 4.4 19:06:13 10° N 19:12:27 83° W 19:18:36 10° S
ATLAS 2AS CENTAUR R/B 4.2 19:09:05 10° NW 19:16:21 40° WSW 19:23:10 10° S
Cosmos 1821 Rocket 4.0 19:14:43 10° N 19:20:48 75° W 19:26:52 10° S
ATLAS 3B CENTAUR R/B 4.2 19:50:39 10° WSW 20:00:10 29° SSW 20:00:10 29° SSW
FALCON 9 R/B 4.2 20:18:05 10° W 20:26:28 35° WSW 20:26:28 35° WSW
